Camden, SC

4:28 PM EDT on September 23, 2017 (GMT -0400)
Woodward

Weather History for KCDN - October, 2012

Change the Weather History Date:

Friday, October 5, 2012

  Actual Average (KSSC) Record (KSSC)
Temperature  
Mean Temperature 69 °F -  
Max Temperature 78 °F 75 °F 91 °F (2002)
Min Temperature 60 °F 56 °F 44 °F (2014)
Cooling Degree Days 4    
Growing Degree Days 19 (Base 50)    
Moisture  
Dew Point 62 °F    
Average Humidity 85    
Maximum Humidity 100    
Minimum Humidity 54    
Precipitation  
Precipitation 0.00 in - - ()
Sea Level Pressure  
Sea Level Pressure 30.14 in    
Wind  
Wind Speed 1 mph (East)    
Max Wind Speed 6 mph    
Max Gust Speed -    
Visibility 8 miles    
Events      
Averages and records for this station are not official NWS values.
T = Trace of Precipitation, MM = Missing Value Source: NWS Daily Summary

Daily Weather History Graph

Daily Weather History Graph

Search for Another Location

Airport or City:

Trip Planner

Search our weather history database for the weather conditions in past years. The results will help you decide how hot, cold, wet, or windy it might be!

Date:

Astronomy

Oct. 05, 2012 Rise Set
Actual Time 7:20 AM EDT 7:00 PM EDT
Civil Twilight 6:55 AM EDT 7:25 PM EDT
Nautical Twilight 6:25 AM EDT 7:54 PM EDT
Astronomical Twilight 5:56 AM EDT 8:23 PM EDT
Moon 10:34 PM EDT (10/5) 12:14 PM EDT (10/5)
Length of Visible Light 12h 30m
Length of Day
11h 40m
Waning Gibbous, 74% of the Moon is Illuminated
Oct 5
Waning Gibbous
Oct 8
Last Quarter
Oct 15
New
Oct 21
First Quarter
Oct 29
Full

Hourly Weather History & Observations

Time (EDT) Temp. Dew Point Humidity Pressure Visibility Wind Dir Wind Speed Gust Speed Precip Events Conditions
12:15 AM 64.4 °F 64.4 °F 100% 30.22 in 10.0 mi Calm Calm - 0.00 in   Clear
12:35 AM 64.4 °F 64.4 °F 100% 30.22 in 7.0 mi Calm Calm - 0.00 in   Clear
12:55 AM 64.4 °F 64.4 °F 100% 30.21 in 5.0 mi Calm Calm - 0.00 in   Clear
1:15 AM 64.4 °F 64.4 °F 100% 30.20 in 9.0 mi Calm Calm - 0.00 in   Clear
1:35 AM 62.6 °F 62.6 °F 100% 30.20 in 1.8 mi Calm Calm - 0.00 in   Mostly Cloudy
2:15 AM 64.4 °F 64.4 °F 100% 30.20 in 1.2 mi Calm Calm - 0.00 in   Overcast
2:35 AM 62.6 °F 62.6 °F 100% 30.19 in 1.0 mi Calm Calm - 0.00 in   Mostly Cloudy
2:55 AM 62.6 °F 62.6 °F 100% 30.19 in 5.0 mi Calm Calm - 0.00 in   Clear
3:15 AM 62.6 °F 62.6 °F 100% 30.18 in 5.0 mi Calm Calm - 0.00 in   Clear
3:35 AM 62.6 °F 62.6 °F 100% 30.18 in 7.0 mi Calm Calm - 0.00 in   Clear
3:55 AM 62.6 °F 62.6 °F 100% 30.18 in 6.0 mi Calm Calm - 0.00 in   Clear
4:15 AM 62.6 °F 62.6 °F 100% 30.17 in 10.0 mi Calm Calm - 0.00 in   Clear
4:35 AM 62.6 °F 62.6 °F 100% 30.17 in 6.0 mi Calm Calm - 0.00 in   Clear
4:55 AM 62.6 °F 62.6 °F 100% 30.17 in 8.0 mi Calm Calm - 0.00 in   Clear
5:15 AM 62.6 °F 62.6 °F 100% 30.17 in 8.0 mi Calm Calm - 0.00 in   Clear
5:55 AM 62.6 °F 62.6 °F 100% 30.18 in 8.0 mi NE 3.5 mph - 0.00 in   Clear
6:15 AM 62.6 °F 62.6 °F 100% 30.18 in 6.0 mi Calm Calm - 0.00 in   Clear
6:35 AM 62.6 °F 62.6 °F 100% 30.19 in 7.0 mi Calm Calm - 0.00 in   Clear
6:55 AM 62.6 °F 62.6 °F 100% 30.19 in 7.0 mi Calm Calm - 0.00 in   Clear
7:15 AM 62.6 °F 62.6 °F 100% 30.19 in 7.0 mi Calm Calm - 0.00 in   Clear
7:35 AM 62.6 °F 60.8 °F 94% 30.19 in 5.0 mi Calm Calm - 0.00 in   Clear
7:55 AM 60.8 °F 60.8 °F 100% 30.19 in 4.0 mi Calm Calm - 0.00 in   Clear
8:15 AM 60.8 °F 60.8 °F 100% 30.19 in 5.0 mi Calm Calm - 0.00 in   Clear
8:35 AM 62.6 °F 62.6 °F 100% 30.19 in 6.0 mi Calm Calm - 0.00 in   Clear
8:55 AM 62.6 °F 62.6 °F 100% 30.19 in 9.0 mi Calm Calm - 0.00 in   Clear
9:15 AM 64.4 °F 62.6 °F 94% 30.19 in 10.0 mi Calm Calm - 0.00 in   Clear
9:35 AM 64.4 °F 60.8 °F 88% 30.19 in 10.0 mi Calm Calm - 0.00 in   Clear
9:55 AM 64.4 °F 60.8 °F 88% 30.20 in 10.0 mi Calm Calm - 0.00 in   Clear
10:15 AM 64.4 °F 62.6 °F 94% 30.20 in 9.0 mi Calm Calm - 0.00 in   Clear
10:35 AM 64.4 °F 62.6 °F 94% 30.20 in 9.0 mi Calm Calm - 0.00 in   Clear
10:55 AM 66.2 °F 62.6 °F 88% 30.19 in 10.0 mi NE 5.8 mph - 0.00 in   Clear
11:15 AM 66.2 °F 60.8 °F 83% 30.19 in 10.0 mi ENE 3.5 mph - 0.00 in   Clear
11:35 AM 66.2 °F 60.8 °F 83% 30.19 in 10.0 mi ENE 3.5 mph - 0.00 in   Clear
11:55 AM 69.8 °F 60.8 °F 73% 30.18 in 10.0 mi NE 4.6 mph - 0.00 in   Clear
12:15 PM 71.6 °F 60.8 °F 69% 30.17 in 10.0 mi ENE 4.6 mph - 0.00 in   Clear
12:35 PM 71.6 °F 60.8 °F 69% 30.17 in 10.0 mi NE 5.8 mph - 0.00 in   Clear
12:55 PM 73.4 °F 60.8 °F 65% 30.17 in 10.0 mi NE 4.6 mph - 0.00 in   Clear
1:15 PM 73.4 °F 60.8 °F 65% 30.16 in 10.0 mi ENE 5.8 mph - 0.00 in   Clear
1:35 PM 75.2 °F 60.8 °F 61% 30.15 in 10.0 mi East 3.5 mph - 0.00 in   Clear
1:55 PM 75.2 °F 60.8 °F 61% 30.14 in 10.0 mi Calm Calm - 0.00 in   Clear
2:15 PM 75.2 °F 60.8 °F 61% 30.14 in 9.0 mi ESE 3.5 mph - 0.00 in   Clear
2:35 PM 77.0 °F 60.8 °F 57% 30.13 in 10.0 mi East 5.8 mph - 0.00 in   Clear
2:55 PM 78.8 °F 60.8 °F 54% 30.12 in 9.0 mi SE 4.6 mph - 0.00 in   Clear
3:15 PM 78.8 °F 60.8 °F 54% 30.11 in 10.0 mi East 3.5 mph - 0.00 in   Clear
3:35 PM 78.8 °F 62.6 °F 57% 30.10 in 10.0 mi SE 5.8 mph - 0.00 in   Clear
3:55 PM 78.8 °F 60.8 °F 54% 30.10 in 10.0 mi SE 5.8 mph - 0.00 in   Clear
4:15 PM 78.8 °F 62.6 °F 57% 30.09 in 10.0 mi ESE 4.6 mph - 0.00 in   Clear
4:35 PM 77.0 °F 60.8 °F 57% 30.08 in 10.0 mi SE 3.5 mph - 0.00 in   Clear
5:15 PM 78.8 °F 62.6 °F 57% 30.07 in 10.0 mi SSE 3.5 mph - 0.00 in   Clear
5:35 PM 78.8 °F 60.8 °F 54% 30.06 in 10.0 mi SE 3.5 mph - 0.00 in   Clear
5:55 PM 78.8 °F 60.8 °F 54% 30.06 in 10.0 mi Calm Calm - 0.00 in   Clear
6:15 PM 77.0 °F 60.8 °F 57% 30.06 in 10.0 mi Calm Calm - 0.00 in   Clear
6:35 PM 75.2 °F 66.2 °F 73% 30.06 in 10.0 mi Calm Calm - 0.00 in   Clear
6:55 PM 71.6 °F 64.4 °F 78% 30.06 in 10.0 mi Calm Calm - 0.00 in   Clear
7:15 PM 69.8 °F 64.4 °F 83% 30.06 in 10.0 mi Calm Calm - 0.00 in   Clear
7:35 PM 68.0 °F 64.4 °F 88% 30.06 in 10.0 mi Calm Calm - 0.00 in   Clear
7:55 PM 68.0 °F 64.4 °F 88% 30.05 in 10.0 mi Calm Calm - 0.00 in   Clear
8:15 PM 66.2 °F 64.4 °F 94% 30.05 in 10.0 mi Calm Calm - 0.00 in   Clear
8:35 PM 66.2 °F 64.4 °F 94% 30.06 in 10.0 mi Calm Calm - 0.00 in   Clear
8:55 PM 66.2 °F 64.4 °F 94% 30.06 in 10.0 mi Calm Calm - 0.00 in   Clear
9:15 PM 64.4 °F 62.6 °F 94% 30.06 in 10.0 mi Calm Calm - 0.00 in   Clear
9:35 PM 64.4 °F 62.6 °F 94% 30.06 in 10.0 mi Calm Calm - 0.00 in   Clear
10:15 PM 64.4 °F 62.6 °F 94% 30.06 in 10.0 mi Calm Calm - 0.00 in   Clear
10:35 PM 64.4 °F 62.6 °F 94% 30.06 in 10.0 mi Calm Calm - 0.00 in   Clear
10:55 PM 62.6 °F 62.6 °F 100% 30.05 in 9.0 mi Calm Calm - 0.00 in   Clear
11:15 PM 62.6 °F 62.6 °F 100% 30.05 in 9.0 mi Calm Calm - 0.00 in   Clear
11:35 PM 62.6 °F 62.6 °F 100% 30.05 in 8.0 mi Calm Calm - 0.00 in   Clear
11:55 PM 62.6 °F 60.8 °F 94% 30.05 in 10.0 mi Calm Calm - 0.00 in   Clear